This demonstration page uses our WeatherBlox Daily Observations layout. Learn more.

Left ArrowRight Arrow

Hourly Observations for March 4, 2020

Temp ( °F °C ) Dew Point ( °F °C ) Humidity (%) Winds ( mph kmh ) Pressure ( in mb ) Visibility ( mi km ) Precip ( " mm )
12:53 am 00:53 Clear 38 3.3 21 -6.1 51 51 SW 16 26 29.64 1004 10 16 N/A
1:53 am 01:53 Clear 39 3.9 22 -5.6 50 50 SW 21 33 29.61 1003 10 16 N/A
2:53 am 02:53 Clear 43 6.1 20 -6.7 40 40 SSW 16 26 29.58 1002 10 16 N/A
3:53 am 03:53 Clear 43 6.1 19 -7.2 38 38 SW 15 24 29.54 1000 10 16 N/A
4:53 am 04:53 Clear 43 6.1 21 -6.1 42 42 SSW 23 37 29.51 999 10 16 N/A
5:53 am 05:53 Clear 41 5 26 -3.3 55 55 W 21 33 29.52 1000 10 16 N/A
6:53 am 06:53 Sunny 43 6.1 28 -2.2 56 56 WSW 29 46 29.55 1001 10 16 N/A
7:53 am 07:53 Sunny 43 6.1 29 -1.7 58 58 WSW 30 48 29.57 1001 10 16 N/A
8:53 am 08:53 Mostly Sunny 45 7.2 29 -1.7 54 54 W 36 57 29.61 1003 10 16 N/A
9:53 am 09:53 Cloudy 36 2.2 30 -1.1 79 79 WNW 31 50 29.70 1006 10 16 0.00 0.00
10:53 am 10:53 Mostly Cloudy 38 3.3 26 -3.3 62 62 WNW 23 37 29.74 1007 10 16 N/A
11:53 am 11:53 Cloudy 40 4.4 24 -4.4 53 53 W 29 46 29.78 1009 10 16 N/A
12:53 pm 12:53 Cloudy 42 5.6 21 -6.1 43 43 W 31 50 29.81 1010 10 16 N/A
1:53 pm 13:53 Cloudy 41 5 19 -7.2 41 41 WNW 29 46 29.85 1011 10 16 N/A
2:53 pm 14:53 Mostly Sunny 44 6.7 21 -6.1 40 40 WNW 24 39 29.86 1011 10 16 N/A
3:53 pm 15:53 Sunny 43 6.1 19 -7.2 38 38 WNW 23 37 29.90 1013 10 16 N/A
4:53 pm 16:53 Mostly Cloudy 39 3.9 21 -6.1 48 48 NNW 31 50 29.96 1015 10 16 N/A
5:53 pm 17:53 Mostly Cloudy 38 3.3 18 -7.8 44 44 NW 21 33 30.02 1017 10 16 N/A
6:53 pm 18:53 Partly Cloudy 34 1.1 19 -7.2 54 54 NW 10 17 30.07 1018 10 16 N/A
7:53 pm 19:53 Clear 27 -2.8 18 -7.8 69 69 WSW 6 9 30.11 1020 10 16 N/A
8:53 pm 20:53 Clear 28 -2.2 19 -7.2 69 69 WNW 5 7 30.14 1021 10 16 N/A
9:53 pm 21:53 Mostly Clear 25 -3.9 18 -7.8 75 75 N N/A 30.19 1023 10 16 N/A
10:53 pm 22:53 Clear 25 -3.9 18 -7.8 75 75 WNW 6 9 30.22 1023 10 16 N/A
11:53 pm 23:53 Clear 26 -3.3 18 -7.8 71 71 WSW 12 19 30.24 1024 10 16 N/A

Powered by AerisWeather